| time (UTC) | temp C | wind direction | speed KPH | gust KPH | rain 1hr cm | rain 24hr cm | rain mn cm | humidity % | barometer mb |
| 20260506193214 | 19 | 10 | 9.7 | 0.0 | 0.00 | 0.00 | 0.00 | ||
| 20260506192714 | 18 | 72 | 12.9 | 16.1 | 0.00 | 0.00 | 0.00 | ||
| 20260506192214 | 17 | 70 | 9.7 | 6.4 | 0.00 | 0.00 | 0.00 | ||
| 20260506191711 | 17 | 18 | 14.5 | 16.1 | 0.00 | 0.00 | 0.00 | ||
| 20260506191212 | 17 | 68 | 11.3 | 11.3 | 0.00 | 0.00 | 0.00 | ||
| 20260506190712 | 17 | 80 | 11.3 | 8.0 | 0.00 | 0.00 | 0.00 | ||
| 20260506190210 | 17 | 30 | 11.3 | 8.0 | 0.00 | 0.00 | 0.00 | ||
| 20260506185709 | 17 | 72 | 11.3 | 12.9 | 0.00 | 0.00 | 0.00 | ||
| 20260506184707 | 17 | 94 | 8.0 | 9.7 | 0.00 | 0.00 | 0.00 | ||
| 20260506184208 | 16 | 60 | 14.5 | 14.5 | 0.00 | 0.00 | 0.00 | ||
| 20260506183708 | 16 | 65 | 14.5 | 11.3 | 0.00 | 0.00 | 0.00 | ||
| 20260506183206 | 17 | 66 | 11.3 | 11.3 | 0.00 | 0.00 | 0.00 | ||
| 20260506182706 | 17 | 3 | 14.5 | 14.5 | 0.00 | 0.00 | 0.00 | ||
| 20260506182207 | 17 | 62 | 14.5 | 11.3 | 0.00 | 0.00 | 0.00 | ||
| 20260506181704 | 17 | 77 | 9.7 | 11.3 | 0.00 | 0.00 | 0.00 | ||
| 20260506181205 | 17 | 23 | 9.7 | 12.9 | 0.00 | 0.00 | 0.00 | ||
| 20260506180705 | 17 | 28 | 8.0 | 4.8 | 0.00 | 0.00 | 0.00 | ||
| 20260506180203 | 17 | 86 | 9.7 | 8.0 | 0.00 | 0.00 | 0.00 | ||
| 20260506175703 | 17 | 30 | 12.9 | 11.3 | 0.00 | 0.00 | 0.00 | ||
| 20260506175204 | 17 | 39 | 11.3 | 11.3 | 0.00 | 0.00 | 0.00 | ||
| 20260506174701 | 16 | 51 | 9.7 | 8.0 | 0.00 | 0.00 | 0.00 | ||
| 20260506174202 | 17 | 4 | 12.9 | 11.3 | 0.00 | 0.00 | 0.00 | ||
| 20260506174022 | 17 | 30 | 11.3 | 11.3 | 0.00 | 0.00 | 0.00 | ||
| 20260506173702 | 17 | 30 | 11.3 | 11.3 | 0.00 | 0.00 | 0.00 | ||
| 20260506173200 | 17 | 13 | 6.4 | 14.5 | 0.00 | 0.00 | 0.00 | ||
| 20260506172700 | 17 | 10 | 11.3 | 8.0 | 0.00 | 0.00 | 0.00 | ||
| 20260506172201 | 17 | 24 | 8.0 | 9.7 | 0.00 | 0.00 | 0.00 | ||
| 20260506171659 | 16 | 24 | 11.3 | 11.3 | 0.00 | 0.00 | 0.00 | ||
| 20260506171159 | 16 | 34 | 4.8 | 3.2 | 0.00 | 0.00 | 0.00 | ||
| 20260506170700 | 17 | 339 | 12.9 | 14.5 | 0.00 | 0.00 | 0.00 | ||
| 20260506170157 | 17 | 329 | 14.5 | 11.3 | 0.00 | 0.00 | 0.00 | ||
| 20260506165658 | 16 | 352 | 14.5 | 16.1 | 0.00 | 0.00 | 0.00 | ||
| 20260506165158 | 16 | 338 | 16.1 | 14.5 | 0.00 | 0.00 | 0.00 | ||
| 20260506164743 | 16 | 353 | 6.4 | 8.0 | 0.00 | 0.00 | 0.00 | ||
| 20260506164656 | 16 | 353 | 6.4 | 8.0 | 0.00 | 0.00 | 0.00 | ||
| 20260506164156 | 16 | 32 | 16.1 | 12.9 | 0.00 | 0.00 | 0.00 | ||
| 20260506163656 | 16 | 359 | 9.7 | 9.7 | 0.00 | 0.00 | 0.00 | ||
| 20260506163155 | 16 | 359 | 11.3 | 8.0 | 0.00 | 0.00 | 0.00 | ||
| 20260506162654 | 16 | 343 | 12.9 | 9.7 | 0.00 | 0.00 | 0.00 | ||
| 20260506162155 | 16 | 338 | 12.9 | 14.5 | 0.00 | 0.00 | 0.00 | ||
| 20260506161653 | 15 | 11 | 14.5 | 11.3 | 0.00 | 0.00 | 0.00 | ||
| 20260506161153 | 15 | 346 | 11.3 | 8.0 | 0.00 | 0.00 | 0.00 | ||
| 20260506160654 | 15 | 4 | 11.3 | 11.3 | 0.00 | 0.00 | 0.00 | ||
| 20260506160151 | 15 | 3 | 12.9 | 16.1 | 0.00 | 0.00 | 0.00 | ||
| 20260506155652 | 14 | 14 | 12.9 | 12.9 | 0.00 | 0.00 | 0.00 | ||
| 20260506155152 | 14 | 4 | 9.7 | 14.5 | 0.00 | 0.00 | 0.00 | ||
| 20260506154806 | 13 | 353 | 9.7 | 4.8 | 0.00 | 0.00 | 0.00 | ||
| 20260506154650 | 13 | 353 | 9.7 | 4.8 | 0.00 | 0.00 | 0.00 | ||
| 20260506154150 | 13 | 350 | 9.7 | 9.7 | 0.00 | 0.00 | 0.00 | ||
| 20260506153650 | 13 | 39 | 11.3 | 11.3 | 0.00 | 0.00 | 0.00 | ||
| 20260506153148 | 13 | 39 | 9.7 | 12.9 | 0.00 | 0.00 | 0.00 | ||
| 20260506152648 | 13 | 24 | 11.3 | 11.3 | 0.00 | 0.00 | 0.00 | ||
| 20260506152149 | 13 | 20 | 14.5 | 11.3 | 0.00 | 0.00 | 0.00 | ||
| 20260506151646 | 13 | 333 | 14.5 | 14.5 | 0.00 | 0.00 | 0.00 | ||
| 20260506151147 | 13 | 359 | 16.1 | 12.9 | 0.00 | 0.00 | 0.00 | ||
| 20260506150647 | 13 | 328 | 16.1 | 14.5 | 0.00 | 0.00 | 0.00 | ||
| 20260506150145 | 13 | 329 | 14.5 | 16.1 | 0.00 | 0.00 | 0.00 | ||
| 20260506145645 | 13 | 323 | 16.1 | 14.5 | 0.00 | 0.00 | 0.00 | ||
| 20260506145146 | 13 | 326 | 14.5 | 14.5 | 0.00 | 0.00 | 0.00 | ||
| 20260506144144 | 13 | 330 | 12.9 | 11.3 | 0.00 | 0.00 | 0.00 | ||
| 20260506143645 | 12 | 328 | 14.5 | 9.7 | 0.00 | 0.00 | 0.00 | ||
| 20260506143403 | 12 | 335 | 17.7 | 14.5 | 0.00 | 0.00 | 0.00 | ||
| 20260506143142 | 12 | 335 | 17.7 | 14.5 | 0.00 | 0.00 | 0.00 | ||
| 20260506142643 | 12 | 322 | 14.5 | 16.1 | 0.00 | 0.00 | 0.00 | ||
| 20260506142143 | 12 | 316 | 17.7 | 12.9 | 0.00 | 0.00 | 0.00 | ||
| 20260506141641 | 12 | 314 | 11.3 | 11.3 | 0.00 | 0.00 | 0.00 | ||
| 20260506141141 | 12 | 345 | 16.1 | 14.5 | 0.00 | 0.00 | 0.00 | ||
| 20260506140642 | 12 | 25 | 14.5 | 11.3 | 0.00 | 0.00 | 0.00 | ||
| 20260506140139 | 12 | 3 | 16.1 | 19.3 | 0.00 | 0.00 | 0.00 | ||
| 20260506135640 | 11 | 350 | 16.1 | 19.3 | 0.00 | 0.00 | 0.00 | ||
| 20260506135140 | 11 | 359 | 14.5 | 14.5 | 0.00 | 0.00 | 0.00 | ||
| 20260506134638 | 11 | 345 | 16.1 | 17.7 | 0.00 | 0.00 | 0.00 | ||
| 20260506134138 | 11 | 353 | 14.5 | 16.1 | 0.00 | 0.00 | 0.00 | ||
| 20260506133639 | 11 | 354 | 16.1 | 16.1 | 0.00 | 0.00 | 0.00 | ||
| 20260506133136 | 11 | 1 | 17.7 | 20.9 | 0.00 | 0.00 | 0.00 | ||
| 20260506132638 | 11 | 349 | 14.5 | 14.5 | 0.00 | 0.00 | 0.00 | ||
| 20260506132137 | 11 | 10 | 16.1 | 12.9 | 0.00 | 0.00 | 0.00 | ||
| 20260506131635 | 11 | 359 | 12.9 | 12.9 | 0.00 | 0.00 | 0.00 | ||
| 20260506131135 | 11 | 18 | 14.5 | 14.5 | 0.00 | 0.00 | 0.00 | ||
| 20260506130636 | 11 | 38 | 19.3 | 19.3 | 0.00 | 0.00 | 0.00 | ||
| 20260506130133 | 11 | 18 | 20.9 | 17.7 | 0.00 | 0.00 | 0.00 | ||
| 20260506125634 | 11 | 336 | 19.3 | 17.7 | 0.00 | 0.00 | 0.00 | ||
| 20260506125135 | 11 | 6 | 16.1 | 17.7 | 0.00 | 0.00 | 0.00 | ||
| 20260506124632 | 12 | 39 | 14.5 | 12.9 | 0.00 | 0.00 | 0.00 | ||
| 20260506124133 | 11 | 10 | 9.7 | 9.7 | 0.00 | 0.00 | 0.00 | ||
| 20260506123633 | 11 | 35 | 11.3 | 12.9 | 0.00 | 0.00 | 0.00 | ||
| 20260506123131 | 11 | 30 | 12.9 | 9.7 | 0.00 | 0.00 | 0.00 | ||
| 20260506122631 | 12 | 14 | 12.9 | 11.3 | 0.00 | 0.00 | 0.00 | ||
| 20260506122132 | 12 | 325 | 16.1 | 14.5 | 0.00 | 0.00 | 0.00 | ||
| 20260506121630 | 12 | 41 | 12.9 | 12.9 | 0.00 | 0.00 | 0.00 | ||
| 20260506121130 | 12 | 27 | 11.3 | 14.5 | 0.00 | 0.00 | 0.00 | ||
| 20260506120631 | 12 | 4 | 14.5 | 9.7 | 0.00 | 0.00 | 0.00 | ||
| 20260506120128 | 12 | 18 | 19.3 | 17.7 | 0.00 | 0.00 | 0.00 | ||
| 20260506115629 | 12 | 0 | 17.7 | 14.5 | 0.00 | 0.00 | 0.00 | ||
| 20260506115129 | 12 | 335 | 14.5 | 14.5 | 0.00 | 0.00 | 0.00 | ||
| 20260506114627 | 13 | 100 | 4.8 | 9.7 | 0.00 | 0.00 | 0.00 | ||
| 20260506114128 | 13 | 20 | 9.7 | 8.0 | 0.00 | 0.00 | 0.00 | ||
| 20260506113706 | 13 | 14 | 14.5 | 12.9 | 0.00 | 0.00 | 0.00 | ||
| 20260506113628 | 13 | 14 | 14.5 | 12.9 | 0.00 | 0.00 | 0.00 | ||
| 20260506113538 | 13 | 28 | 14.5 | 12.9 | 0.00 | 0.00 | 0.00 | ||
| 20260506113126 | 13 | 28 | 14.5 | 12.9 | 0.00 | 0.00 | 0.00 | ||
| 20260506112626 | 13 | 39 | 16.1 | 14.5 | 0.00 | 0.00 | 0.00 | ||
| 20260506112126 | 13 | 4 | 17.7 | 12.9 | 0.00 | 0.00 | 0.00 | ||
| 20260506111623 | 13 | 347 | 16.1 | 19.3 | 0.00 | 0.00 | 0.00 | ||
| 20260506111124 | 13 | 342 | 20.9 | 14.5 | 0.00 | 0.00 | 0.00 | ||
| 20260506110624 | 13 | 340 | 12.9 | 12.9 | 0.00 | 0.00 | 0.00 | ||
| 20260506110122 | 13 | 345 | 12.9 | 12.9 | 0.00 | 0.00 | 0.00 | ||
| 20260506105623 | 14 | 27 | 11.3 | 11.3 | 0.00 | 0.00 | 0.00 | ||
| 20260506105123 | 13 | 21 | 12.9 | 11.3 | 0.00 | 0.00 | 0.00 | ||
| 20260506104621 | 13 | 10 | 11.3 | 12.9 | 0.00 | 0.00 | 0.00 | ||
| 20260506104121 | 14 | 359 | 9.7 | 11.3 | 0.00 | 0.00 | 0.00 | ||
| 20260506103622 | 14 | 20 | 12.9 | 11.3 | 0.00 | 0.00 | 0.00 | ||
| 20260506103120 | 14 | 23 | 9.7 | 11.3 | 0.00 | 0.00 | 0.00 | ||
| 20260506102620 | 14 | 1 | 12.9 | 14.5 | 0.00 | 0.00 | 0.00 | ||
| 20260506102121 | 14 | 11 | 11.3 | 12.9 | 0.00 | 0.00 | 0.00 | ||
| 20260506101618 | 14 | 28 | 12.9 | 11.3 | 0.00 | 0.00 | 0.00 | ||
| 20260506101119 | 15 | 350 | 11.3 | 9.7 | 0.00 | 0.00 | 0.00 | ||
| 20260506100619 | 15 | 17 | 11.3 | 9.7 | 0.00 | 0.00 | 0.00 | ||
| 20260506100117 | 14 | 352 | 12.9 | 14.5 | 0.00 | 0.00 | 0.00 | ||
| 20260506095617 | 14 | 356 | 12.9 | 11.3 | 0.00 | 0.00 | 0.00 | ||
| 20260506095118 | 15 | 352 | 11.3 | 8.0 | 0.00 | 0.00 | 0.00 | ||
| 20260506094616 | 15 | 354 | 9.7 | 12.9 | 0.00 | 0.00 | 0.00 | ||
| 20260506094116 | 15 | 326 | 9.7 | 9.7 | 0.00 | 0.00 | 0.00 | ||
| 20260506093617 | 15 | 10 | 9.7 | 9.7 | 0.00 | 0.00 | 0.00 | ||
| 20260506093114 | 15 | 329 | 11.3 | 11.3 | 0.00 | 0.00 | 0.00 | ||
| 20260506092615 | 15 | 321 | 12.9 | 9.7 | 0.00 | 0.00 | 0.00 | ||
| 20260506092115 | 15 | 326 | 6.4 | 11.3 | 0.00 | 0.00 | 0.00 | ||
| 20260506091613 | 15 | 343 | 9.7 | 11.3 | 0.00 | 0.00 | 0.00 | ||
| 20260506091114 | 15 | 323 | 11.3 | 9.7 | 0.00 | 0.00 | 0.00 | ||
| 20260506090614 | 15 | 338 | 8.0 | 8.0 | 0.00 | 0.00 | 0.00 | ||
| 20260506090112 | 15 | 359 | 11.3 | 12.9 | 0.00 | 0.00 | 0.00 | ||
| 20260506085930 | 15 | 354 | 12.9 | 11.3 | 0.00 | 0.00 | 0.00 | ||
| 20260506085613 | 15 | 354 | 12.9 | 11.3 | 0.00 | 0.00 | 0.00 | ||
| 20260506085113 | 16 | 8 | 14.5 | 16.1 | 0.00 | 0.00 | 0.00 | ||
| 20260506084611 | 16 | 7 | 11.3 | 8.0 | 0.00 | 0.00 | 0.00 | ||
| 20260506084112 | 16 | 359 | 14.5 | 9.7 | 0.00 | 0.00 | 0.00 | ||
| 20260506083612 | 16 | 0 | 16.1 | 14.5 | 0.00 | 0.00 | 0.00 | ||
| 20260506083110 | 16 | 14 | 12.9 | 9.7 | 0.00 | 0.00 | 0.00 | ||
| 20260506082610 | 16 | 347 | 12.9 | 11.3 | 0.00 | 0.00 | 0.00 | ||
| 20260506082111 | 16 | 353 | 9.7 | 9.7 | 0.00 | 0.00 | 0.00 | ||
| 20260506081608 | 16 | 359 | 9.7 | 12.9 | 0.00 | 0.00 | 0.00 | ||
| 20260506081109 | 17 | 356 | 12.9 | 11.3 | 0.00 | 0.00 | 0.00 | ||
| 20260506080609 | 17 | 7 | 14.5 | 11.3 | 0.00 | 0.00 | 0.00 | ||
| 20260506080107 | 17 | 13 | 14.5 | 16.1 | 0.00 | 0.00 | 0.00 | ||
| 20260506073104 | 18 | 4 | 9.7 | 12.9 | 0.00 | 0.00 | 0.00 | ||
| 20260506072605 | 18 | 35 | 14.5 | 16.1 | 0.00 | 0.00 | 0.00 | ||
| 20260506072105 | 18 | 13 | 14.5 | 16.1 | 0.00 | 0.00 | 0.00 | ||
| 20260506071603 | 18 | 25 | 16.1 | 16.1 | 0.00 | 0.00 | 0.00 | ||
| 20260506071103 | 19 | 17 | 12.9 | 16.1 | 0.00 | 0.00 | 0.00 | ||
| 20260506070604 | 19 | 21 | 11.3 | 14.5 | 0.00 | 0.00 | 0.00 | ||
| 20260506062100 | 20 | 44 | 9.7 | 12.9 | 0.00 | 0.00 | 0.00 | ||
| 20260506061558 | 20 | 20 | 12.9 | 11.3 | 0.00 | 0.00 | 0.00 | ||
| 20260506061058 | 20 | 13 | 11.3 | 8.0 | 0.00 | 0.00 | 0.00 | ||
| 20260506060559 | 20 | 21 | 14.5 | 12.9 | 0.00 | 0.00 | 0.00 | ||
| 20260506051053 | 20 | 226 | 0.0 | 0.0 | 0.00 | 0.00 | 0.00 | ||
| 20260506050554 | 20 | 226 | 0.0 | 0.0 | 0.00 | 0.00 | 0.00 | ||
| 20260506045052 | 20 | 239 | 0.0 | 0.0 | 0.00 | 0.00 | 0.00 | ||
| 20260506044550 | 20 | 302 | 1.6 | 0.0 | 0.00 | 0.00 | 0.00 | ||
| 20260506044051 | 20 | 326 | 6.4 | 3.2 | 0.00 | 0.00 | 0.00 | ||
| 20260506043551 | 21 | 253 | 0.0 | 0.0 | 0.00 | 0.00 | 0.00 | ||
| 20260506043049 | 21 | 253 | 0.0 | 0.0 | 0.00 | 0.00 | 0.00 | ||
| 20260506042639 | 22 | 253 | 0.0 | 0.0 | 0.00 | 0.00 | 0.00 | ||
| 20260506042549 | 21 | 253 | 0.0 | 0.0 | 0.00 | 0.00 | 0.00 | ||
| 20260506042050 | 22 | 253 | 0.0 | 0.0 | 0.00 | 0.00 | 0.00 | ||
| 20260506041548 | 21 | 253 | 0.0 | 0.0 | 0.00 | 0.00 | 0.00 | ||
| 20260506041048 | 21 | 253 | 0.0 | 0.0 | 0.00 | 0.00 | 0.00 | ||
| 20260506040549 | 22 | 253 | 0.0 | 0.0 | 0.00 | 0.00 | 0.00 | ||
| 20260506040046 | 22 | 253 | 0.0 | 0.0 | 0.00 | 0.00 | 0.00 | ||
| 20260506035547 | 22 | 253 | 0.0 | 0.0 | 0.00 | 0.00 | 0.00 | ||
| 20260506035047 | 22 | 253 | 0.0 | 0.0 | 0.00 | 0.00 | 0.00 | ||
| 20260506034545 | 22 | 253 | 0.0 | 0.0 | 0.00 | 0.00 | 0.00 | ||
| 20260506034045 | 23 | 253 | 0.0 | 0.0 | 0.00 | 0.00 | 0.00 | ||
| 20260506033546 | 23 | 253 | 0.0 | 0.0 | 0.00 | 0.00 | 0.00 | ||
| 20260506033043 | 23 | 253 | 0.0 | 0.0 | 0.00 | 0.00 | 0.00 | ||
| 20260506032544 | 23 | 253 | 0.0 | 0.0 | 0.00 | 0.00 | 0.00 | ||
| 20260506032044 | 23 | 253 | 0.0 | 0.0 | 0.00 | 0.00 | 0.00 | ||
| 20260506031542 | 24 | 253 | 0.0 | 0.0 | 0.00 | 0.00 | 0.00 | ||
| 20260506031042 | 24 | 253 | 0.0 | 0.0 | 0.00 | 0.00 | 0.00 | ||
| 20260506030543 | 25 | 253 | 0.0 | 0.0 | 0.00 | 0.00 | 0.00 | ||
| 20260506030040 | 25 | 253 | 0.0 | 0.0 | 0.00 | 0.00 | 0.00 | ||
| 20260506025541 | 25 | 253 | 0.0 | 0.0 | 0.00 | 0.00 | 0.00 | ||
| 20260506025041 | 25 | 253 | 0.0 | 0.0 | 0.00 | 0.00 | 0.00 | ||
| 20260506024538 | 25 | 283 | 3.2 | 3.2 | 0.00 | 0.00 | 0.00 | ||
| 20260506024038 | 25 | 263 | 4.8 | 4.8 | 0.00 | 0.00 | 0.00 | ||
| 20260506023539 | 25 | 273 | 6.4 | 8.0 | 0.00 | 0.00 | 0.00 | ||
| 20260506023036 | 25 | 287 | 6.4 | 6.4 | 0.00 | 0.00 | 0.00 | ||
| 20260506022537 | 26 | 281 | 8.0 | 4.8 | 0.00 | 0.00 | 0.00 | ||
| 20260506022037 | 26 | 291 | 8.0 | 4.8 | 0.00 | 0.00 | 0.00 | ||
| 20260506021535 | 26 | 288 | 4.8 | 1.6 | 0.00 | 0.00 | 0.00 | ||
| 20260506021204 | 26 | 259 | 0.0 | 1.6 | 0.00 | 0.00 | 0.00 | ||
| 20260506021035 | 26 | 259 | 0.0 | 1.6 | 0.00 | 0.00 | 0.00 | ||
| 20260506020536 | 26 | 297 | 3.2 | 1.6 | 0.00 | 0.00 | 0.00 | ||
| 20260506020033 | 26 | 301 | 6.4 | 6.4 | 0.00 | 0.00 | 0.00 | ||
| 20260506015534 | 26 | 298 | 4.8 | 4.8 | 0.00 | 0.00 | 0.00 | ||
| 20260506015034 | 26 | 291 | 4.8 | 6.4 | 0.00 | 0.00 | 0.00 | ||
| 20260506014532 | 27 | 293 | 6.4 | 4.8 | 0.00 | 0.00 | 0.00 | ||
| 20260506014032 | 27 | 290 | 6.4 | 4.8 | 0.00 | 0.00 | 0.00 | ||
| 20260506013533 | 27 | 294 | 8.0 | 6.4 | 0.00 | 0.00 | 0.00 | ||
| 20260506013030 | 27 | 284 | 8.0 | 9.7 | 0.00 | 0.00 | 0.00 | ||
| 20260506012531 | 28 | 281 | 9.7 | 8.0 | 0.00 | 0.00 | 0.00 | ||
| 20260506012031 | 28 | 283 | 11.3 | 9.7 | 0.00 | 0.00 | 0.00 | ||
| 20260506011529 | 28 | 280 | 8.0 | 11.3 | 0.00 | 0.00 | 0.00 | ||
| 20260506011029 | 29 | 277 | 8.0 | 6.4 | 0.00 | 0.00 | 0.00 | ||
| 20260506010529 | 29 | 304 | 9.7 | 6.4 | 0.00 | 0.00 | 0.00 | ||
| 20260506010027 | 30 | 290 | 12.9 | 11.3 | 0.00 | 0.00 | 0.00 | ||
| 20260506005527 | 30 | 285 | 8.0 | 12.9 | 0.00 | 0.00 | 0.00 | ||
| 20260506005028 | 30 | 266 | 9.7 | 14.5 | 0.00 | 0.00 | 0.00 | ||
| 20260506004525 | 30 | 293 | 11.3 | 6.4 | 0.00 | 0.00 | 0.00 | ||
| 20260506004026 | 31 | 243 | 9.7 | 12.9 | 0.00 | 0.00 | 0.00 | ||
| 20260506003526 | 31 | 271 | 11.3 | 9.7 | 0.00 | 0.00 | 0.00 | ||
| 20260506003023 | 31 | 321 | 4.8 | 3.2 | 0.00 | 0.00 | 0.00 | ||
| 20260506002524 | 31 | 238 | 1.6 | 3.2 | 0.00 | 0.00 | 0.00 | ||
| 20260506002024 | 32 | 231 | 1.6 | 0.0 | 0.00 | 0.00 | 0.00 | ||
| 20260506001522 | 32 | 211 | 4.8 | 4.8 | 0.00 | 0.00 | 0.00 | ||
| 20260506001022 | 32 | 246 | 3.2 | 4.8 | 0.00 | 0.00 | 0.00 | ||
| 20260506000522 | 31 | 238 | 4.8 | 4.8 | 0.00 | 0.00 | 0.00 | ||
| 20260506000020 | 31 | 240 | 4.8 | 3.2 | 0.00 | 0.00 | 0.00 | ||
| 20260505235520 | 31 | 231 | 6.4 | 11.3 | 0.00 | 0.00 | 0.00 | ||
| 20260505235021 | 31 | 229 | 6.4 | 6.4 | 0.00 | 0.00 | 0.00 | ||
| 20260505234518 | 32 | 228 | 8.0 | 4.8 | 0.00 | 0.00 | 0.00 | ||
| 20260505234018 | 32 | 228 | 6.4 | 9.7 | 0.00 | 0.00 | 0.00 | ||
| 20260505233519 | 32 | 215 | 9.7 | 12.9 | 0.00 | 0.00 | 0.00 | ||
| 20260505233016 | 32 | 224 | 6.4 | 4.8 | 0.00 | 0.00 | 0.00 | ||
| 20260505232516 | 32 | 249 | 11.3 | 9.7 | 0.00 | 0.00 | 0.00 | ||
| 20260505232017 | 32 | 229 | 12.9 | 12.9 | 0.00 | 0.00 | 0.00 | ||
| 20260505231514 | 32 | 238 | 8.0 | 4.8 | 0.00 | 0.00 | 0.00 | ||
| 20260505231100 | 33 | 214 | 11.3 | 6.4 | 0.00 | 0.00 | 0.00 | ||
| 20260505231014 | 33 | 214 | 11.3 | 6.4 | 0.00 | 0.00 | 0.00 | ||
| 20260505230515 | 33 | 229 | 11.3 | 12.9 | 0.00 | 0.00 | 0.00 | ||
| 20260505230012 | 33 | 226 | 11.3 | 9.7 | 0.00 | 0.00 | 0.00 | ||
| 20260505225513 | 33 | 255 | 11.3 | 6.4 | 0.00 | 0.00 | 0.00 | ||
| 20260505225013 | 33 | 229 | 11.3 | 9.7 | 0.00 | 0.00 | 0.00 | ||
| 20260505224510 | 34 | 218 | 12.9 | 14.5 | 0.00 | 0.00 | 0.00 | ||
| 20260505224011 | 34 | 205 | 6.4 | 6.4 | 0.00 | 0.00 | 0.00 | ||
| 20260505223511 | 34 | 243 | 11.3 | 14.5 | 0.00 | 0.00 | 0.00 | ||
| 20260505223008 | 33 | 252 | 9.7 | 14.5 | 0.00 | 0.00 | 0.00 | ||
| 20260505222509 | 34 | 231 | 12.9 | 11.3 | 0.00 | 0.00 | 0.00 | ||
| 20260505222009 | 33 | 235 | 12.9 | 9.7 | 0.00 | 0.00 | 0.00 | ||
| 20260505221505 | 33 | 221 | 11.3 | 9.7 | 0.00 | 0.00 | 0.00 | ||
| 20260505221005 | 33 | 246 | 12.9 | 12.9 | 0.00 | 0.00 | 0.00 | ||
| 20260505220505 | 34 | 214 | 12.9 | 6.4 | 0.00 | 0.00 | 0.00 | ||
| 20260505220003 | 34 | 232 | 9.7 | 12.9 | 0.00 | 0.00 | 0.00 | ||
| 20260505215503 | 33 | 242 | 14.5 | 11.3 | 0.00 | 0.00 | 0.00 | ||
| 20260505215003 | 34 | 242 | 11.3 | 9.7 | 0.00 | 0.00 | 0.00 | ||
| 20260505214501 | 34 | 222 | 6.4 | 8.0 | 0.00 | 0.00 | 0.00 | ||
| 20260505214001 | 33 | 203 | 8.0 | 6.4 | 0.00 | 0.00 | 0.00 | ||
| 20260505213501 | 33 | 257 | 12.9 | 11.3 | 0.00 | 0.00 | 0.00 | ||
| 20260505213409 | 33 | 221 | 14.5 | 16.1 | 0.00 | 0.00 | 0.00 | ||
| 20260505212958 | 33 | 221 | 14.5 | 16.1 | 0.00 | 0.00 | 0.00 | ||
| 20260505212458 | 34 | 252 | 14.5 | 12.9 | 0.00 | 0.00 | 0.00 | ||
| 20260505211958 | 34 | 242 | 14.5 | 17.7 | 0.00 | 0.00 | 0.00 | ||
| 20260505211456 | 34 | 285 | 12.9 | 9.7 | 0.00 | 0.00 | 0.00 | ||
| 20260505210956 | 33 | 269 | 9.7 | 6.4 | 0.00 | 0.00 | 0.00 | ||
| 20260505210456 | 34 | 277 | 16.1 | 16.1 | 0.00 | 0.00 | 0.00 | ||
| 20260505205954 | 35 | 295 | 12.9 | 12.9 | 0.00 | 0.00 | 0.00 | ||
| 20260505205454 | 34 | 284 | 16.1 | 14.5 | 0.00 | 0.00 | 0.00 | ||
| 20260505204954 | 34 | 215 | 14.5 | 16.1 | 0.00 | 0.00 | 0.00 | ||
| 20260505204452 | 35 | 269 | 17.7 | 12.9 | 0.00 | 0.00 | 0.00 | ||
| 20260505203952 | 35 | 293 | 11.3 | 14.5 | 0.00 | 0.00 | 0.00 | ||
| 20260505203452 | 35 | 239 | 6.4 | 14.5 | 0.00 | 0.00 | 0.00 | ||
| 20260505202950 | 35 | 281 | 8.0 | 17.7 | 0.00 | 0.00 | 0.00 | ||
| 20260505202450 | 34 | 257 | 9.7 | 11.3 | 0.00 | 0.00 | 0.00 | ||
| 20260505201950 | 35 | 264 | 9.7 | 17.7 | 0.00 | 0.00 | 0.00 | ||
| 20260505201447 | 34 | 300 | 9.7 | 8.0 | 0.00 | 0.00 | 0.00 | ||
| 20260505200948 | 34 | 252 | 9.7 | 16.1 | 0.00 | 0.00 | 0.00 | ||
| 20260505200448 | 33 | 238 | 12.9 | 16.1 | 0.00 | 0.00 | 0.00 | ||
| 20260505195946 | 34 | 264 | 12.9 | 12.9 | 0.00 | 0.00 | 0.00 | ||
| 20260505195446 | 35 | 246 | 8.0 | 9.7 | 0.00 | 0.00 | 0.00 | ||
| 20260505194946 | 34 | 253 | 11.3 | 12.9 | 0.00 | 0.00 | 0.00 | ||
| 20260505194442 | 34 | 238 | 14.5 | 11.3 | 0.00 | 0.00 | 0.00 | ||
| 20260505193942 | 35 | 233 | 11.3 | 11.3 | 0.00 | 0.00 | 0.00 |